STARLINK-5339, 56510

Orbit data source: Space-Track

STARLINK-5339, 56510 is a payload satellite owned by SpaceX/Seattle (US) in LEO that was launched on Sun, 14 May 2023 UTC via an FALCON 9 launch vehicle from the Air Force Eastern Test Range (AFETR). Payload-class satellites include a variety of spacecraft equipped with specific instruments for various scientific and technological missions. These include communications satellites like Starlink; space stations such as the ISS; scientific satellites like the Hubble; Earth observation satellites from companies like Planet Labs, Umbra, and HawkEye 360; GPS; miniature CubeSats for education and research; and military/defense satellites.

Loading next visibility...
Identifier
56510, 2023-065H
Orbit
LEO
Country
Flag of USUS
Related business
Manufacturer
SpaceX/Seattle
Mission
Operational Commercial Communications
Bus & Motor
STARLINK, Unknown motor
Mass
305 kg wet, ~290 kg dry
Launch date (UTC)
2023-05-14 (3 years ago)
Launch vehicle
FALCON 9
Launch site
Air Force Eastern Test Range (AFETR)
Object type
Payload
Rocket body
Debris
Shape & HBR
Box + 1 Pan, 10.1 m
Radar Cross Section
11.087 m², Large (>1 m²)

Expand to show TLE details & history
Last TLE update: 2 days ago

TLE from 2 days ago
0 STARLINK-5339
1 56510U 23065H   26171.47693984 -.00000664  00000-0 -14609-4 0  9992
2 56510  43.0045 351.6606 0002580 258.5841 101.4721 15.27556184172325
Epoch: 2026-06-20T11:26Z
TLE epoch observation values (Epoch: 2026-06-20T11:26:47.602Z)
Latitude
-0°
Longitude
-88.72875°
Altitude
483.249 km
Speed
7.625 km/s
True Right ascension
23h 26m 38s
True Declination
0° 00' 00"
Sunlit
Object was in daylight at epoch
Visualization orbit readout
Latitude
Unknown
Longitude
Unknown
Altitude
Unknown
Speed
Unknown
Apparent Right ascension
Unknown
Apparent Declination
Unknown
Sunlit
N/A
Visualization observer readout
Local Sidereal Time
21:24:51
Azimuth
Unknown
Elevation
Unknown
Doppler factor
Unknown
Orbital elements
Apogee altitude
486.836 km
Perigee altitude
483.294 km
Semi-major axis
6,863.202 km
Eccentricity
0.00026
Inclination
43.0045°
RAAN
351.6606°
Arg. of periapsis
258.5841°
True anomaly
101.50107°
Mean anomaly
101.4721°
Eccentric anomaly
101.48659°
Mean motion
3.81727 °/min
Orbital period
94.31 mins
BSTAR
-0.000014609
Loading maneuver chart data...
Computing Atmospheric mass density...
Loading historical data...
Loading historical data...
Loading historical data...
Loading historical data...
Loading historical data...
Loading historical data...
Loading historical data...

Documentation

Showing up to 5 results
|